Погода в Мугах

Россия / Республика Дагестан     42°17′58″N   47°25′19″E
темп.,
°C
ветер,
м/с
пор.,
м/с
влажн.,
%
обл.,
%
осадки,
мм/ч
давл.,
гПа
погр.,
м
1 декабря, ср
ср100:00+13юз12223183 0.0 9991250
03:00+13зюз1425314 0.0 9971518
06:00+11зюз112235100 0.0 9961569
09:00+12ююз918356 0.0 9982354
12:00+13ююз717310 0.0 9972143
15:00+3в348498 0.2 1005530
18:00+2в3498100 2.8 1006330
21:00−2всв2299100 11.8 1011191
2 декабря, чт
чт200:00−3в229899 2.6 1013174
03:00−3всв119799 3.5 1014158
06:00−5ююв229865 0.2 101636
09:00−3ю12866 0.2 101787
12:00−1с117617 0.0 1018467
15:00−2всв2297100 0.9 1020267
18:00−3юв2299100 1.4 1024170
21:00−5юз229310 1.5 102746
3 декабря, пт
пт300:00−8зюз33771 0.0 102818
03:00−8зюз43630 0.0 102816
06:00−8юз43560 0.0 102716
09:00−2зюз32600 0.0 102423
12:00+2зюз22811 0.0 101932
15:00+1зюз227569 0.0 101912
18:00−3зюз4360100 0.0 102216
21:00−3зюз4355100 0.0 102217
4 декабря, сб
сб400:00−3зюз435428 0.0 102115
03:00−3зюз43560 0.0 102116
06:00−3зюз33585 0.0 102213
09:00+1зюз32655 0.0 102018
12:00+3юз11910 0.0 101739
15:00+2зюз21810 0.0 101812
18:00−2зюз33630 0.0 102113
21:00−2зюз33587 0.0 102015
5 декабря, вс
вс500:00−1зюз4357100 0.0 101817
03:00−2зюз43565 0.0 101815
06:00−2зюз4355100 0.0 101715
09:00+2зюз3259100 0.0 101518
12:00+4юз1183100 0.0 101338
15:00+3зюз1175100 0.0 101311
18:000зюз2267100 0.0 101712
21:00−1з2266100 0.0 101913